Location: Pl�tzky
(52.0521°N, 11.8020°E)
Time: 00:40:08
(UTC+00:00)

Cosmos 158 Rocket - Pass Details

Date: 22 November 2019
Orbit: 699 x 792 km, 74.0° (Epoch: 14 December)

Event Time Altitude Azimuth Distance (km) Brightness Sun altitude
Rises 17:08:20 0° 200° (SSW) 3,239 7.7 -17.2°
Reaches altitude 10° 17:10:43 10° 199° (SSW) 2,304 6.9 -17.6°
Maximum altitude 17:15:57 81° 113° (ESE) 769 3.9 -18.4°
Enters shadow 17:19:37 19° 28° (NNE) 1,706 5.5 -18.9°
